Change the Weather History Date:

Tuesday, October 16, 2012

  Actual Average Record
Temperature  
Mean Temperature 61 °F -  
Max Temperature 68 °F 59 °F 77 °F (2001)
Min Temperature 54 °F 50 °F 48 °F (2003)
Degree Days  
Heating Degree Days 4    
Growing Degree Days 11 (Base 50)    
Moisture  
Dew Point 52 °F    
Average Humidity 73    
Maximum Humidity 88    
Minimum Humidity 50    
Precipitation  
Precipitation 0.00 in 0.13 in - ()
Sea Level Pressure  
Sea Level Pressure 29.79 in    
Wind  
Wind Speed 4 mph ()    
Max Wind Speed 9 mph    
Max Gust Speed 18 mph    
Visibility 7.0 miles    
Events Rain    
Averages and records for this station are not official NWS values.
T = Trace of Precipitation, MM = Missing Value Source: Averaged Metar Reports

Daily Weather History Graph

Daily Weather History Graph

Search for Another Location

Airport or City:

Trip Planner

Search our weather history database for the weather conditions in past years. The results will help you decide how hot, cold, wet, or windy it might be!

Date:

Astronomy

Oct. 16, 2012 Rise Set
Actual Time 7:23 AM CEST 6:17 PM CEST
Civil Twilight 6:53 AM CEST 6:47 PM CEST
Nautical Twilight 6:18 AM CEST 7:21 PM CEST
Astronomical Twilight 5:44 AM CEST 7:55 PM CEST
Moon 8:30 AM CEST (10/16) 6:41 PM CEST (10/16)
Length of Visible Light 11h 54m
Length of Day
10h 54m
New Moon, 1% of the Moon is Illuminated
Oct 16
New Moon
Oct 22
First Quarter
Oct 29
Full
Nov 7
Last Quarter
Nov 13
New

Hourly Weather History & Observations

Time (CEST) Temp. Dew Point Humidity Pressure Visibility Wind Dir Wind Speed Gust Speed Precip Events Conditions
12:55 AM 60.8 °F 57.2 °F 88% 29.65 in 6.2 mi ENE 3.5 mph - N/A Rain Rain
1:55 AM 60.8 °F 57.2 °F 88% 29.65 in 6.2 mi East 4.6 mph - N/A   Mostly Cloudy
2:00 AM 61 °F 57 °F 83% 29.67 in 6 mi East 4.6 mph - - Rain Light Rain
2:55 AM 60.8 °F 57.2 °F 88% 29.65 in 6.2 mi East 9.2 mph - N/A   Mostly Cloudy
3:55 AM 57.2 °F 53.6 °F 88% 29.68 in 6.2 mi North 5.8 mph 18.4 mph N/A Rain Rain
4:55 AM 57.2 °F 51.8 °F 82% 29.68 in 6.2 mi North 5.8 mph 18.4 mph N/A Rain Rain
5:55 AM 55.4 °F 50.0 °F 82% 29.68 in 6.2 mi NE 4.6 mph - N/A   Scattered Clouds
6:55 AM 55.4 °F 50.0 °F 82% 29.68 in 6.2 mi ENE 5.8 mph - N/A Rain Light Rain
7:55 AM 55.4 °F 50.0 °F 82% 29.71 in 6.2 mi ENE 6.9 mph - N/A Rain Light Rain
8:00 AM 55 °F 49 °F 75% 29.72 in 12 mi ENE 6.9 mph - - Rain Light Rain
8:55 AM 55.4 °F 48.2 °F 77% 29.71 in 6.2 mi ENE 2.3 mph - N/A   Partly Cloudy
9:55 AM 60.8 °F 53.6 °F 77% 29.71 in 6.2 mi Calm Calm - N/A   Partly Cloudy
10:55 AM 64.4 °F 51.8 °F 64% 29.74 in - SW 1.2 mph - N/A   Clear
12:55 PM 68.0 °F 55.4 °F 64% 29.80 in 6.2 mi West 5.8 mph - N/A   Partly Cloudy
1:55 PM 64.4 °F 51.8 °F 64% 29.80 in - West 5.8 mph - N/A   Clear
2:00 PM 65 °F 51 °F 50% 29.83 in 12 mi West 5.8 mph - -   Partly Cloudy
3:55 PM 66.2 °F 53.6 °F 64% 29.86 in 6.2 mi West 5.8 mph - N/A   Scattered Clouds
4:55 PM 66.2 °F 50.0 °F 56% 29.86 in - SW 4.6 mph - N/A   Clear
5:55 PM 64.4 °F 50.0 °F 59% 29.86 in 6.2 mi NW 3.5 mph - N/A   Partly Cloudy
7:55 PM 60.8 °F 51.8 °F 72% 29.95 in 6.2 mi East 2.3 mph - N/A   Scattered Clouds
8:00 PM 61 °F 51 °F 62% 29.96 in 12 mi East 2.3 mph - -   Partly Cloudy
8:55 PM 59.0 °F 50.0 °F 72% 29.98 in 6.2 mi East 3.5 mph - N/A   Scattered Clouds
9:55 PM 59.0 °F 48.2 °F 67% 30.01 in 6.2 mi East 3.5 mph - N/A   Partly Cloudy
10:55 PM 59.0 °F 48.2 °F 67% 30.01 in 6.2 mi East 3.5 mph - N/A   Partly Cloudy
11:55 PM 59.0 °F 50.0 °F 72% 30.01 in 6.2 mi East 3.5 mph - N/A   Partly Cloudy